Retour au catalogue

DELTA 1 DEB

ActifUNKNOWN
NORAD 7055·DEBRIS·🇺🇸 United States

Lancé Nov 6, 1973 depuis Vandenberg Space Force Base

Loading…

Prochains Passages (prochaines 24 heures)

TLE

FraisSource: Space-Track

Époque: Sep 14, 2026, 09:51 UTC

1 07055U 73086AX  26257.41068554  .00000035  00000-0  95986-3 0  9994
2 07055 102.6633 327.9110 0344704  28.2988  31.3518 11.84226988284264

Suivez DELTA 1 DEB en temps réel avec AllMySat

Download on the App Store